Location: Eboldshausen
(51.7766°N, 10.0050°E)
Time: 17:44:07
(UTC+00:00)

Landsat 7 - Pass Details

Date: 15 November 2025
Orbit: 680 x 682 km, 97.9° (Epoch: 09 December)

Event Time Altitude Azimuth Distance (km) Brightness Sun altitude
Rises 16:36:18 0° 159° (SSE) 3,033 7.1 -10.3°
Reaches altitude 10° 16:38:31 10° 158° (SSE) 2,122 6.3 -10.6°
Maximum altitude 16:43:09 76° 74° (ENE) 709 3.7 -11.3°
Drops below altitude 10° 16:47:50 10° 349° (NNW) 2,137 6.3 -12.0°
Sets 16:50:05 0° 348° (NNW) 3,057 7.1 -12.4°
